User: anonymous   Login
Location: Unspecified
(0.0000°N, 0.0000°E)
Time: 02:03:18
(UTC+00:00)
Language:

TBA - TO BE ASSIGNED - Orbit

View from above orbital plane
View from above orbital plane
View from above satellite
View from above satellite

Ground track
Ground track

The orbit is defined by the following mean orbital elements,

1 68563U          26145.58335647 +.00000000 +00000-0 +12524-2 0 00006
2 68563  53.1593   4.7171 0001028  89.9174  43.7356 15.34373364    02
Epoch (UTC): 25 May 2026 14:00:01
Eccentricity: 0.0001028
inclination: 53.1593°
perigee height: 462 km
apogee height: 463 km
right ascension of ascending node: 4.7171°
argument of perigee: 89.9174°
revolutions per day: 15.34373364
mean anomaly at epoch: 43.7356°

The dashed part of the orbit path shows where the satellite is in the earth's shadow,  

DLR